STARLINK-33834, 63586

Orbit data source: Space-Track

STARLINK-33834, 63586 is a payload satellite owned by SpaceX/Seattle (US) in LEO that was launched on Mon, 14 Apr 2025 UTC via an FALCON 9 launch vehicle from the Air Force Eastern Test Range (AFETR). Payload-class satellites include a variety of spacecraft equipped with specific instruments for various scientific and technological missions. These include communications satellites like Starlink; space stations such as the ISS; scientific satellites like the Hubble; Earth observation satellites from companies like Planet Labs, Umbra, and HawkEye 360; GPS; miniature CubeSats for education and research; and military/defense satellites.

Loading next visibility...
Identifier
63586, 2025-076T
Orbit
LEO
Country
Flag of USUS
Related business
Manufacturer
SpaceX/Seattle
Mission
Operational Commercial Communications
Bus & Motor
STARLINK V2MO, Unknown motor
Mass
575 kg wet, ~530 kg dry
Launch date (UTC)
2025-04-14 (5 months ago)
Launch vehicle
FALCON 9
Launch site
Air Force Eastern Test Range (AFETR)
Object type
Payload
Rocket body
Debris
Shape & HBR
Box + 1 Pan, 14.5 m
Radar Cross Section
41.120 m², Large (>1 m²)

Expand to show TLE details & history
Last TLE update: 12 hours ago

TLE from 12 hours ago
0 STARLINK-33834
1 63586U 25076T   25259.26207995  .00023075  00000-0  84475-3 0  9999
2 63586  43.0006 226.7947 0000849 267.1984  92.8771 15.27606946 25151
Epoch: 2025-09-16T06:17Z
TLE epoch observation values (Epoch: 2025-09-16T06:17:23.707Z)
Latitude
0.00001°
Longitude
136.99102°
Altitude
482.773 km
Speed
7.626 km/s
True Right ascension
15h 07m 10s
True Declination
0° 00' 00"
Sunlit
Object was in daylight at epoch
Visualization orbit readout
Latitude
Unknown
Longitude
Unknown
Altitude
Unknown
Speed
Unknown
Apparent Right ascension
Unknown
Apparent Declination
Unknown
Sunlit
N/A
Visualization observer readout
Local Sidereal Time
11:18:19
Azimuth
Unknown
Elevation
Unknown
Doppler factor
Unknown
Orbital elements
Apogee altitude
485.496 km
Perigee altitude
484.331 km
Semi-major axis
6,863.051 km
Eccentricity
0.00008
Inclination
43.0006°
RAAN
226.7947°
Arg. of periapsis
267.1984°
True anomaly
92.88682°
Mean anomaly
92.8771°
Eccentric anomaly
92.88196°
Mean motion
3.8174 °/min
Orbital period
94.31 mins
BSTAR
0.00084475
Loading maneuver chart data...
Computing Atmospheric mass density...
Loading historical data...
Loading historical data...
Loading historical data...
Loading historical data...
Loading historical data...
Loading historical data...
Loading historical data...

Documentation

Showing up to 5 results
|